Flag for San Marino Weather past 2 weeks in San Marino, San Marino

Now
73 °F

Clear.


Feels Like: 76 °F
Forecast: 67 / 82 °F
Wind: 1 mph from Southwest

Location: Rimini Airport

Current Time: Jul 29, 2015 at 5:49:17 AM

Latest Report: Jul 29, 2015 at 4:45 AM


Visibility: 10 mi

Pressure: 29.71 "Hg (27.51 "Hg at 666m altitude)

Humidity: 65%

Dew point: 61 °F

Location of San MarinoLocation

Historic Weather in San Marino — Graph

°F

San Marino temperature yesterday

Maximum temperature yesterday: 90 °F (at 10:45 AM)
Minimum temperature yesterday: 72 °F (at 6:15 AM)
Average temperature yesterday: 83 °F

Past Weeks' High & Low Weather Summary

 TemperatureHumidityPressure
High93 °F (Jul 19, 1:15 PM)89% (Jul 15, 3:45 AM)30.04 "Hg (Jul 15, 3:45 AM)
Low72 °F (Jul 28, 6:15 AM)36% (Jul 22, 8:45 PM)29.65 "Hg (Jul 27, 4:15 PM)
Average85 °F66%29.86 "Hg
* Reported Jul 14 4:15 AM — Jul 29 4:15 AM, San Marino, Weather by CustomWeather, © 2015

Note: Actual official high and low records may vary slightly from our data, if they occured in-between our weather recording intervals... More about our weather records

Advertising

San Marino weather history for previous 24 hours

 ConditionsComfort  
Time TempWeatherWind HumidityBarometerVisibility
4:15 AM
Wed, Jul 29
73 °FClear.No wind65%29.71 "Hg10 mi
3:15 AM75 °FClear.2 mph65%29.71 "Hg10 mi
2:45 AM75 °FClear.1 mph65%29.71 "Hg10 mi
2:15 AM75 °FClear.No wind74%29.71 "Hg10 mi
1:15 AM75 °FClear.No wind69%29.71 "Hg10 mi
12:15 AM77 °FClear.2 mph89%29.74 "Hg10 mi
11:45 PM
Tue, Jul 28
77 °FClear.3 mph89%29.74 "Hg10 mi
11:15 PM79 °FClear.3 mph84%29.74 "Hg10 mi
10:45 PM81 °FClear.2 mph84%29.74 "Hg10 mi
10:15 PM81 °FClear.No wind84%29.74 "Hg10 mi
9:45 PM84 °FClear.1 mph79%29.71 "Hg10 mi
9:15 PM84 °FSunny.6 mph84%29.71 "Hg10 mi
8:45 PM84 °FSunny.10 mph84%29.71 "Hg10 mi
8:15 PM84 °FSunny.12 mph79%29.71 "Hg10 mi
7:45 PM84 °FSunny.13 mph74%29.71 "Hg10 mi
7:15 PM86 °FSunny.14 mph70%29.71 "Hg10 mi
6:45 PM86 °FPassing clouds.16 mph70%29.71 "HgN/A
6:15 PM86 °FPassing clouds.16 mph70%29.71 "HgN/A
5:45 PM88 °FPassing clouds.16 mph66%29.71 "HgN/A
5:15 PM88 °FPassing clouds.15 mph62%29.71 "HgN/A
4:45 PM88 °FPassing clouds.15 mph55%29.71 "HgN/A
4:15 PM88 °FPassing clouds.16 mph62%29.71 "HgN/A
3:45 PM88 °FPassing clouds.15 mph59%29.71 "HgN/A
3:15 PM86 °FPassing clouds.14 mph66%29.71 "HgN/A
2:45 PM88 °FPassing clouds.14 mph59%29.71 "HgN/A
2:15 PM88 °FPassing clouds.12 mph55%29.71 "HgN/A
1:45 PM88 °FPassing clouds.12 mph52%29.71 "HgN/A
1:15 PM88 °FPassing clouds.13 mph52%29.74 "HgN/A
12:45 PM90 °FPassing clouds.12 mph46%29.74 "HgN/A
12:15 PM90 °FPassing clouds.9 mph46%29.74 "HgN/A
11:45 AM88 °FSunny.10 mph49%29.74 "Hg10 mi
11:15 AM88 °FSunny.10 mph49%29.71 "Hg10 mi
10:45 AM90 °FSunny.5 mph46%29.74 "Hg10 mi
10:15 AM88 °FSunny.1 mph43%29.74 "Hg10 mi
9:45 AM86 °FSunny.No wind46%29.74 "Hg10 mi
9:15 AM84 °FSunny.No wind51%29.71 "Hg10 mi
8:45 AM82 °FSunny.No wind55%29.71 "Hg10 mi
8:15 AM81 °FSunny.No wind62%29.71 "Hg10 mi
7:45 AM77 °FSunny.3 mph69%29.71 "Hg10 mi
7:15 AM73 °FSunny.3 mph78%29.71 "Hg10 mi
6:45 AM72 °FClear.5 mph78%29.71 "Hg10 mi
6:15 AM72 °FClear.No wind78%29.71 "Hg10 mi
5:45 AM73 °FClear.1 mph78%29.71 "Hg10 mi
5:15 AM73 °FClear.1 mph78%29.68 "Hg10 mi
Weather by CustomWeather, © 2015

See weather overviewHow to use our weather pages